Location: Unspecified
(0.0000°N, 0.0000°E)
Time: 13:33:09
(UTC+00:00)

Vanguard 2 - Pass Details

Date: 15 December 2017
Orbit: 553 x 2939 km, 32.9° (Epoch: 19 July)

Event Time Altitude Azimuth Distance (km) Brightness Sun altitude
Rises 04:17:57 0° 229° (SW) 5,265 11.6 -22.2°
Reaches altitude 10° 04:24:24 10° 204° (SSW) 4,816 11.6 -20.7°
Maximum altitude 04:30:19 13° 179° (S) 4,935 11.9 -19.4°
Drops below altitude 10° 04:36:59 10° 154° (SSE) 5,545 12.6 -17.9°
Sets 04:45:58 0° 131° (SE) 6,782 13.9 -15.8°
